Weather History for Glasgow, KY

Change the Weather History Date:

Saturday, September 7, 2013

  Actual Average Record
Temperature  
Mean Temperature 73 °F -  
Max Temperature 87 °F 85 °F 99 °F (1990)
Min Temperature 59 °F 61 °F 44 °F (1988)
Cooling Degree Days 8    
Growing Degree Days 23 (Base 50)    
Moisture  
Dew Point 65 °F    
Average Humidity 81    
Maximum Humidity 100    
Minimum Humidity 46    
Precipitation  
Precipitation 0.00 in - - ()
Sea Level Pressure  
Sea Level Pressure 30.06 in    
Wind  
Wind Speed 1 mph (SW)    
Max Wind Speed 6 mph    
Max Gust Speed -    
Visibility 7 miles    
Events Fog    
Averages and records for this station are not official NWS values.
T = Trace of Precipitation, MM = Missing Value Source: NWS Daily Summary

Daily Weather History Graph

Daily Weather History Graph

Search for Another Location

Airport:

Trip Planner

Search our weather history database for the weather conditions in past years. The results will help you decide how hot, cold, wet, or windy it might be!

Date:

Astronomy

Sep. 07, 2013 Rise Set
Actual Time 6:19 AM CDT 7:03 PM CDT
Civil Twilight 5:53 AM CDT 7:29 PM CDT
Nautical Twilight 5:22 AM CDT 8:00 PM CDT
Astronomical Twilight 4:50 AM CDT 8:32 PM CDT
Moon 8:28 AM CDT (9/7) 8:06 PM CDT (9/7)
Length of Visible Light 13h 36m
Length of Day
12h 43m
Waxing Crescent, 5% of the Moon is Illuminated
Sep 7
Waxing Crescent
Sep 12
First Quarter
Sep 19
Full
Sep 26
Last Quarter
Oct 4
New

Hourly Weather History & Observations

Time (CDT) Temp. Heat Index Dew Point Humidity Pressure Visibility Wind Dir Wind Speed Gust Speed Precip Events Conditions
12:15 AM 63.9 °F - 63.9 °F 100% 30.11 in 5.0 mi Calm Calm - N/A   Clear
12:35 AM 63.7 °F - 63.7 °F 100% 30.11 in 2.0 mi Calm Calm - N/A   Clear
12:55 AM 63.9 °F - 63.9 °F 100% 30.11 in 5.0 mi Calm Calm - N/A   Clear
1:15 AM 63.7 °F - 63.7 °F 100% 30.11 in 7.0 mi Calm Calm - N/A   Clear
1:35 AM 63.3 °F - 63.3 °F 100% 30.11 in 7.0 mi Calm Calm - N/A   Clear
1:55 AM 62.6 °F - 62.6 °F 100% 30.09 in 2.0 mi Calm Calm - N/A   Clear
2:15 AM 62.4 °F - 62.4 °F 100% 30.10 in 4.0 mi Calm Calm - N/A   Clear
2:35 AM 62.4 °F - 62.4 °F 100% 30.09 in 2.5 mi Calm Calm - N/A   Clear
2:55 AM 61.7 °F - 61.7 °F 100% 30.09 in 2.0 mi Calm Calm - N/A   Clear
3:15 AM 60.8 °F - 60.8 °F 100% 30.09 in 0.5 mi Calm Calm - N/A Fog Fog
3:35 AM 60.8 °F - 60.8 °F 100% 30.09 in 2.5 mi Calm Calm - N/A   Clear
3:55 AM 60.8 °F - 60.8 °F 100% 30.09 in 0.8 mi Calm Calm - N/A   Mist
4:15 AM 60.8 °F - 60.8 °F 100% 30.09 in 0.5 mi Calm Calm - N/A Fog Fog
4:35 AM 61.0 °F - 61.0 °F 100% 30.10 in 3.0 mi Calm Calm - N/A   Clear
4:55 AM 61.0 °F - 61.0 °F 100% 30.09 in 5.0 mi Calm Calm - N/A   Clear
5:15 AM 61.7 °F - 61.7 °F 100% 30.09 in 4.0 mi Calm Calm - N/A   Clear
5:35 AM 61.2 °F - 61.2 °F 100% 30.09 in 0.2 mi Calm Calm - N/A Fog Fog
5:55 AM 60.4 °F - 60.4 °F 100% 30.10 in 0.2 mi Calm Calm - N/A Fog Fog
6:15 AM 59.5 °F - 59.5 °F 100% 30.11 in 0.2 mi Calm Calm - N/A Fog Fog
6:35 AM 59.5 °F - 59.5 °F 100% 30.11 in 0.2 mi Calm Calm - N/A Fog Fog
6:55 AM 60.3 °F - 60.3 °F 100% 30.11 in 0.8 mi Calm Calm - N/A   Mist
7:15 AM 61.0 °F - 61.0 °F 100% 30.11 in 1.2 mi Calm Calm - N/A   Mist
7:35 AM 62.8 °F - 62.8 °F 100% 30.12 in 7.0 mi Calm Calm - N/A   Clear
7:55 AM 64.9 °F - 64.9 °F 100% 30.11 in 7.0 mi Calm Calm - N/A   Clear
8:15 AM 67.3 °F - 67.1 °F 99% 30.11 in 10.0 mi Calm Calm - N/A   Clear
8:35 AM 70.2 °F - 67.3 °F 91% 30.11 in 10.0 mi Calm Calm - N/A   Clear
8:55 AM 72.7 °F - 66.2 °F 80% 30.11 in 10.0 mi Calm Calm - N/A   Clear
9:15 AM 74.5 °F - 66.2 °F 75% 30.11 in 10.0 mi Calm Calm - N/A   Clear
9:35 AM 76.5 °F - 66.0 °F 70% 30.12 in 10.0 mi Calm Calm - N/A   Clear
9:55 AM 78.1 °F - 65.1 °F 64% 30.12 in 10.0 mi Calm Calm - N/A   Clear
10:15 AM 79.0 °F - 65.7 °F 64% 30.11 in 10.0 mi Calm Calm - N/A   Clear
10:35 AM 80.4 °F 82.4 °F 65.8 °F 61% 30.11 in 10.0 mi Calm Calm - N/A   Clear
10:55 AM 81.7 °F 83.3 °F 64.8 °F 56% 30.11 in 10.0 mi SW 3.5 mph - N/A   Clear
11:15 AM 82.6 °F 83.9 °F 64.0 °F 53% 30.11 in 10.0 mi South 4.6 mph - N/A   Clear
11:35 AM 83.5 °F 84.9 °F 64.0 °F 52% 30.10 in 10.0 mi South 3.5 mph - N/A   Clear
11:55 AM 83.7 °F 85.1 °F 64.2 °F 52% 30.09 in 10.0 mi West 3.5 mph - N/A   Clear
12:15 PM 84.4 °F 85.6 °F 64.0 °F 50% 30.08 in 10.0 mi South 4.6 mph - N/A   Clear
12:35 PM 84.9 °F 86.1 °F 63.9 °F 49% 30.08 in 10.0 mi SW 3.5 mph - N/A   Clear
12:55 PM 84.6 °F 86.3 °F 64.9 °F 52% 30.08 in 10.0 mi Calm Calm - N/A   Clear
1:15 PM 85.1 °F 87.1 °F 65.5 °F 52% 30.07 in 10.0 mi West 4.6 mph - N/A   Clear
1:35 PM 85.3 °F 86.6 °F 64.4 °F 49% 30.06 in 10.0 mi Calm Calm - N/A   Clear
1:55 PM 85.5 °F 87.4 °F 65.5 °F 51% 30.05 in 10.0 mi Calm Calm - N/A   Clear
2:15 PM 86.2 °F 88.2 °F 65.3 °F 50% 30.04 in 10.0 mi Calm Calm - N/A   Clear
2:35 PM 86.5 °F 87.8 °F 64.2 °F 47% 30.04 in 10.0 mi South 5.8 mph - N/A   Clear
2:55 PM 86.9 °F 88.1 °F 64.0 °F 46% 30.03 in 10.0 mi WSW 5.8 mph - N/A   Clear
3:15 PM 86.4 °F 88.1 °F 65.1 °F 49% 30.03 in 10.0 mi SW 4.6 mph - N/A   Clear
3:35 PM 86.7 °F 87.8 °F 63.9 °F 46% 30.02 in 10.0 mi Calm Calm - N/A   Clear
3:55 PM 86.5 °F 88.1 °F 64.6 °F 48% 30.01 in 10.0 mi WSW 3.5 mph - N/A   Clear
4:15 PM 86.4 °F 88.1 °F 65.3 °F 49% 30.01 in 10.0 mi SW 4.6 mph - N/A   Clear
4:35 PM 87.3 °F 89.2 °F 65.5 °F 48% 30.00 in 10.0 mi WSW 3.5 mph - N/A   Clear
4:55 PM 86.7 °F 88.7 °F 65.5 °F 49% 29.99 in 10.0 mi SSW 5.8 mph - N/A   Clear
5:15 PM 85.6 °F 87.6 °F 65.7 °F 51% 30.00 in 10.0 mi SW 4.6 mph - N/A   Clear
5:35 PM 85.1 °F 87.7 °F 66.7 °F 54% 30.00 in 10.0 mi Calm Calm - N/A   Clear
5:55 PM 83.8 °F 86.5 °F 67.1 °F 57% 30.00 in 10.0 mi Calm Calm - N/A   Clear
6:15 PM 81.5 °F 84.8 °F 69.1 °F 66% 30.00 in 10.0 mi Calm Calm - N/A   Clear
6:35 PM 79.3 °F - 70.7 °F 75% 29.99 in 10.0 mi Calm Calm - N/A   Clear
6:55 PM 77.7 °F - 70.2 °F 77% 30.00 in 10.0 mi Calm Calm - N/A   Clear
7:15 PM 75.4 °F - 70.2 °F 84% 30.00 in 10.0 mi Calm Calm - N/A   Clear
7:35 PM 73.6 °F - 71.4 °F 93% 30.00 in 10.0 mi Calm Calm - N/A   Clear
7:55 PM 73.0 °F - 70.5 °F 92% 30.00 in 10.0 mi Calm Calm - N/A   Clear
8:15 PM 71.6 °F - 70.0 °F 95% 30.01 in 10.0 mi Calm Calm - N/A   Clear
8:35 PM 71.2 °F - 71.2 °F 100% 30.01 in 10.0 mi Calm Calm - N/A   Clear
8:55 PM 70.7 °F - 70.7 °F 100% 30.01 in 10.0 mi Calm Calm - N/A   Clear
9:15 PM 70.2 °F - 70.2 °F 100% 30.01 in 10.0 mi Calm Calm - N/A   Clear
9:35 PM 69.8 °F - 69.8 °F 100% 30.02 in 7.0 mi Calm Calm - N/A   Clear
9:55 PM 68.7 °F - 68.7 °F 100% 30.02 in 7.0 mi Calm Calm - N/A   Clear
10:15 PM 68.7 °F - 68.7 °F 100% 30.02 in 4.0 mi Calm Calm - N/A   Clear
10:35 PM 68.4 °F - 68.4 °F 100% 30.02 in 5.0 mi Calm Calm - N/A   Clear
10:55 PM 67.6 °F - 67.6 °F 100% 30.02 in 5.0 mi Calm Calm - N/A   Clear
11:15 PM 67.5 °F - 67.5 °F 100% 30.02 in 3.0 mi Calm Calm - N/A   Clear
11:35 PM 67.5 °F - 67.5 °F 100% 30.02 in 0.5 mi Calm Calm - N/A Fog Fog
11:55 PM 67.3 °F - 67.3 °F 100% 30.01 in 1.8 mi Calm Calm - N/A   Mist